This is the latest recevied weather packets stored in our database for station/object WX2NJ. If no packets are shown the sender has not sent any weather packets the latest 10 day(s).
| Time | Temp. | Humidity | Pressure | Rain* | Wind** | Luminosity | Snow |
|---|---|---|---|---|---|---|---|
| 1777828318 | 13.89° C | 34% | 1016 hPa | 0 mm | - | 164 W/m² | - |
| 1777828014 | 14.44° C | 34% | 1016 hPa | 0 mm | - | 718 W/m² | - |
| 1777827711 | 14.44° C | 34% | 1016 hPa | 0 mm | - | 696 W/m² | - |
| 1777827408 | 13.89° C | 35% | 1015.8 hPa | 0 mm | - | 658 W/m² | - |
| 1777827105 | 13.33° C | 37% | 1016.1 hPa | 0 mm | - | 212 W/m² | - |
| 1777826801 | 14.44° C | 33% | 1015.8 hPa | 0 mm | - | 207 W/m² | - |
| 1777826499 | 14.44° C | 32% | 1015.8 hPa | 0 mm | - | 431 W/m² | - |
| 1777826195 | 15° C | 35% | 1016 hPa | 0 mm | - | 571 W/m² | - |
| 1777825893 | 14.44° C | 32% | 1016.2 hPa | 0 mm | - | 815 W/m² | - |
| 1777825590 | 14.44° C | 34% | 1015.9 hPa | 0 mm | - | 761 W/m² | - |
| 1777825288 | 13.33° C | 37% | 1016 hPa | 0 mm | - | 760 W/m² | - |
| 1777824985 | 14.44° C | 37% | 1016.4 hPa | 0 mm | - | 257 W/m² | - |
| 1777824680 | 14.44° C | 34% | 1016.1 hPa | 0 mm | - | 322 W/m² | - |
| 1777824378 | 13.33° C | 35% | 1016.3 hPa | 0 mm | - | 221 W/m² | - |
| 1777824073 | 13.33° C | 37% | 1016.1 hPa | 0 mm | - | 418 W/m² | - |
| 1777823770 | 13.33° C | 34% | 1016.2 hPa | 0 mm | - | 223 W/m² | - |
| 1777823467 | 13.33° C | 39% | 1016.4 hPa | 0 mm | - | 445 W/m² | - |
| 1777823164 | 12.78° C | 39% | 1016.6 hPa | 0 mm | - | 444 W/m² | - |
| 1777822862 | 12.78° C | 37% | 1016.4 hPa | 0 mm | - | 213 W/m² | - |
| 1777822559 | 12.22° C | 41% | 1016.6 hPa | 0 mm | - | 164 W/m² | - |
| 1777822256 | 13.89° C | 38% | 1016.5 hPa | 0 mm | - | 148 W/m² | - |
| 1777821954 | 13.33° C | 38% | 1016.4 hPa | 0 mm | - | 177 W/m² | - |
| 1777821652 | 13.33° C | 38% | 1016.3 hPa | 0 mm | - | 328 W/m² | - |
| 1777821350 | 12.22° C | 39% | 1016.7 hPa | 0 mm | - | 257 W/m² | - |
| 1777821046 | 13.89° C | 38% | 1016.4 hPa | 0 mm | - | 160 W/m² | - |
* Rain latest hour (hover to see other rain measurements)
** Current wind speed in m/s (hover to see current wind gust speed)